Regional Weather Roundup
Issued by NWS Sterling, VA

Home | Current Version | Previous Version | Text Only | Print | Product List | Glossary On
Versions: 1 2 3 4 5 6 7 8 9 10 11 12 13 14 15 16 17 18 19 20 21 22 23 24 25 26 27 28 29 30 31 32 33 34 35 36 37 38 39 40 41 42 43 44 45 46 47 48 49 50
000
ASUS41 KLWX 040810
RWRLWX

REGIONAL WEATHER ROUNDUP
NATIONAL WEATHER SERVICE BALTIMORE MD/WASHINGTON DC
300 AM EST WED MAR 04 2015

Note: "FAIR" indicates few or no clouds below 12,000 feet
with no significant weather and/or obstructions to visibility.
 TC=TEMPERATURE CELSIUS

 * =Non NWS site. Station does not report precipitation (e.g. rain,
    snow, etc.), thunder, or fog.

DCZ001-MDZ009-015-VAZ040>042-051-053>054-040900-
WASHINGTON METRO

CITY           SKY/WX    TMP DP  RH WIND       PRES   REMARKS
WASHINGTON NAT CLOUDY    42  35  76 W3        29.86R
DULLES         CLOUDY    36  32  85 NW3       29.84F
ANDREWS AFB    LGT RAIN  41  37  87 W10       29.82R
FT BELVOIR     CLOUDY    41  36  81 VRB1      29.85R
QUANTICO       CLOUDY    42  36  79 SW8       29.84F
COLLEGE PARK*  CLOUDY    41  36  81 W5        29.84R
LEESBURG*      LGT RAIN  37  36  93 S5        29.84F
MANASSAS*      CLOUDY    39  36  87 NW5       29.84R
GAITHERSBURG*  CLOUDY    36  30  80 S5        29.86F

$$

MDZ006>007-011-014-040900-
BALTIMORE METRO

CITY           SKY/WX    TMP DP  RH WIND       PRES   REMARKS
BWI AIRPORT    CLOUDY    37  34  87 W6        29.84R
MD SCIENCE CTR   N/A     38  34  85 MISG      29.84R
MARTIN STATE   LGT RAIN  34  34 100 CALM      29.85S
ANNAPOLIS      LGT RAIN  39  35  86 NW7       29.84R
FORT MEADE*    CLOUDY    37  34  87 CALM      29.86R

$$

MDZ012-015-019>023-040900-
MARYLAND EASTERN SHORE

CITY           SKY/WX    TMP DP  RH WIND       PRES   REMARKS
OCEAN CITY     LGT RAIN  43  42  97 SW20G26   29.85F FOG
SALISBURY      CLOUDY    44  40  85 SW16      29.84F
BAY BRIDGE AP* LGT RAIN  39  37  93 W5        29.85R
CAMBRIDGE*     CLOUDY    41  37  87 S8        29.82S
EASTON*        CLOUDY    44  44 100 SW9G16    29.86S

$$

MDZ017>025-040900-
SOUTHERN MARYLAND

CITY           SKY/WX    TMP DP  RH WIND       PRES   REMARKS
PATUXENT RIVER MOCLDY    44  40  85 SW18G24   29.82F
ST INIGOES     CLOUDY    41  37  86 SW15      29.85F
LEONARDTOWN*   CLOUDY    43  37  81 SW16G22   29.83F

$$

MDZ003>005-040900-
NORTH CENTRAL MARYLAND

CITY           SKY/WX    TMP DP  RH WIND       PRES   REMARKS
FREDERICK*     CLOUDY    36  32  87 S5        29.83S
HAGERSTOWN APT CLOUDY    33  31  92 NW6       29.79S FOG
WESTMINSTER*   CLOUDY    36  32  87 S6        29.77F

$$

MDZ501>502-040900-
WESTERN MARYLAND

CITY           SKY/WX    TMP DP  RH WIND       PRES   REMARKS
OAKLAND*       CLOUDY    43 N/A N/A W12G23    29.79R FOG
CUMBERLAND*      N/A     36  36 100 MISG        N/A

$$

VAZ025>031-040900-
SHENANDOAH VALLEY

CITY           SKY/WX    TMP DP  RH WIND       PRES   REMARKS
WINCHESTER*    DRIZZLE   41  36  81 S6        29.79F
FRONT ROYAL*   CLOUDY    41  37  87 E6        29.82R
LURAY*         CLOUDY    50  45  81 SW8       29.79S
NEW MARKET*    CLOUDY    42  37  84 W6        29.82R
STAUNTON*      DRIZZLE   43  40  90 S8        29.82F
WAYNESBORO*    CLOUDY    46  44  93 W6        29.80F

$$

WVZ021-048>050-054>055-040900-
EASTERN WEST VIRGINIA PANHANDLE

CITY           SKY/WX    TMP DP  RH WIND       PRES   REMARKS
MARTINSBURG    CLOUDY    37  33  85 W5        29.80S FOG
PETERSBURG*    NOT AVBL

$$

VAZ036>039-050-040900-
CENTRAL FOOTHILLS

CITY           SKY/WX    TMP DP  RH WIND       PRES   REMARKS
CHARLOTTESVILL CLOUDY    38  35  89 S14       29.83F
CULPEPER*      CLOUDY    39  37  93 SW5       29.83F
ORANGE*        CLOUDY    39  36  87 S13       29.84F
GORDONSVILLE*  CLOUDY    38  35  90 SW12      29.83F
WARRENTON*     CLOUDY    40  39  95 SW9       29.82S

$$

VAZ055>057-040900-
NORTH AND CENTRAL PIEDMONT

CITY           SKY/WX    TMP DP  RH WIND       PRES   REMARKS
FREDERICKSBRG* CLOUDY    44  39  85 SW17G23   29.83F
STAFFORD*      CLOUDY    41  36  81 SW7       29.87F

$$

NCZ024-NYZ072-PAZ021-071-VAZ022-071-040900-
OTHER REGIONAL OBSERVATIONS

CITY           SKY/WX    TMP DP  RH WIND       PRES   REMARKS
NEW YORK CITY  CLOUDY    36  31  82 VRB7G20   29.77F
PHILADELPHIA   LGT RAIN  34  32  92 SW10      29.82F FOG     WCI  26
PITTSBURGH     LGT RAIN  39  38  96 W5        29.80R
ROANOKE        MOCLDY    37  35  92 CALM      29.91F FOG
RICHMOND       CLOUDY    44  41  89 SW9       29.89F
RALEIGH        FOG       39  37  93 SW10      30.01F VSB 1/8

$$

ANZ530>537-040900-
MARINE OBSERVATIONS

STATION/POSITION TIME  TEMP    WIND        PRES
                       AIR SEA DIR/SP/G
                 (UTC) (F)     (DEG/KT/KT) (MB)
THOMAS PT LIGHT  0800   38 31  300/  4/  4 1011.9R
BALT KEY BRIDGE  0700   36      CALM  /  1 1010.0R
COVE POINT       0700   42     240/ 21/ 25 1010.0F
LEWISETTA        0700   41 33  230/ 14/ 20 1011.1F
SOLOMONS ISLAND  0700      33                N/A

$$



USA.gov is the U.S. government's official web portal to all federal, state and local government web resources and services.